CFG11 LSZR-LFTZ

Flight info

Callsign CFG11
Flight time 0h 53m
Altitude 41000
Route AMIKI DCT KLO DCT ALETO DCT NITAM DCT PERUS
Aircraft MD11/H-SDE1E2E3FGHIJ2J3J4J5M1RWXY/LB1D1

Departure

Time 2026-04-20 18:50
Airport Sankt Gallen Altenrhein Airport (LSZR)

Arrival

Time 2026-04-20 19:43
Airport La Môle Airport (LFTZ)
Time Latitude Longitude Altitude Speed Heading
2026-04-20 18:22 47.48710 9.55252 1324 ft 0 kts
2026-04-20 18:43 47.48711 9.55252 1322 ft 0 kts
2026-04-20 18:43 47.48720 9.55259 1324 ft 1 kts 28°
2026-04-20 18:43 47.48730 9.55283 1324 ft 3 kts 65°
2026-04-20 18:44 47.48732 9.55312 1320 ft 3 kts 88°
2026-04-20 18:44 47.48728 9.55333 1320 ft 1 kts 108°
2026-04-20 18:44 47.48717 9.55344 1320 ft 1 kts 151°
2026-04-20 18:44 47.48700 9.55348 1321 ft 2 kts 174°
2026-04-20 18:45 47.48689 9.55345 1321 ft 0 kts 189°
2026-04-20 18:45 47.48684 9.55343 1321 ft 5 kts 189°
2026-04-20 18:46 47.48642 9.55333 1323 ft 7 kts 189°
2026-04-20 18:46 47.48592 9.55338 1325 ft 7 kts 153°
2026-04-20 18:46 47.48573 9.55409 1326 ft 15 kts 98°
2026-04-20 18:46 47.48537 9.55755 1327 ft 41 kts 98°
2026-04-20 18:47 47.48494 9.56168 1320 ft 41 kts 98°
2026-04-20 18:47 47.48454 9.56579 1317 ft 40 kts 99°
2026-04-20 18:47 47.48419 9.56904 1320 ft 17 kts 98°
2026-04-20 18:47 47.48417 9.56966 1321 ft 3 kts 73°
2026-04-20 18:48 47.48431 9.56999 1324 ft 4 kts 63°
2026-04-20 18:48 47.48428 9.57028 1323 ft 3 kts 120°
2026-04-20 18:48 47.48417 9.57028 1323 ft 1 kts 184°
2026-04-20 18:48 47.48412 9.57014 1324 ft 1 kts 251°
2026-04-20 18:49 47.48412 9.57006 1324 ft 0 kts 266°
2026-04-20 18:49 47.48425 9.56818 1322 ft 75 kts 278°
2026-04-20 18:49 47.48559 9.55394 1539 ft 181 kts 278°
2026-04-20 18:50 47.48740 9.53469 3059 ft 201 kts 282°
2026-04-20 18:50 47.48957 9.51437 4686 ft 189 kts 282°
2026-04-20 18:50 47.49203 9.49390 5742 ft 224 kts 281°
2026-04-20 18:50 47.49505 9.46886 5935 ft 266 kts 280°
2026-04-20 18:51 47.49828 9.44130 6606 ft 274 kts 279°
2026-04-20 18:51 47.50148 9.41359 7505 ft 270 kts 279°
2026-04-20 18:51 47.50458 9.38636 8508 ft 267 kts 279°
2026-04-20 18:51 47.50761 9.35946 10091 ft 265 kts 279°
2026-04-20 18:52 47.51144 9.33113 10725 ft 304 kts 286°
2026-04-20 18:52 47.52213 9.30217 11369 ft 333 kts 307°
2026-04-20 18:52 47.53807 9.27698 12832 ft 337 kts 313°
2026-04-20 18:52 47.55454 9.25202 14185 ft 340 kts 308°
2026-04-20 18:53 47.56708 9.22258 15456 ft 340 kts 292°
2026-04-20 18:53 47.57281 9.18861 16674 ft 344 kts 278°
2026-04-20 18:53 47.57427 9.15358 17859 ft 348 kts 274°
2026-04-20 18:53 47.57444 9.11757 18945 ft 351 kts 272°
2026-04-20 18:54 47.57443 9.08123 19979 ft 353 kts 273°
2026-04-20 18:54 47.57349 9.04470 20883 ft 359 kts 265°
2026-04-20 18:54 47.56791 9.00831 21884 ft 366 kts 258°
2026-04-20 18:54 47.55993 8.97225 22902 ft 371 kts 256°
2026-04-20 18:55 47.55050 8.93647 23807 ft 380 kts 249°
2026-04-20 18:55 47.53513 8.90369 24638 ft 398 kts 235°
2026-04-20 18:55 47.51333 8.87682 25425 ft 419 kts 220°
2026-04-20 18:55 47.48646 8.85762 26204 ft 438 kts 209°
2026-04-20 18:56 47.45744 8.84227 26966 ft 445 kts 208°
2026-04-20 18:56 47.42859 8.82556 27852 ft 446 kts 211°
2026-04-20 18:56 47.40052 8.80595 28658 ft 447 kts 215°
2026-04-20 18:56 47.37307 8.78367 29461 ft 451 kts 218°
2026-04-20 18:57 47.34648 8.76001 30222 ft 454 kts 219°
2026-04-20 18:57 47.31961 8.73495 30836 ft 459 kts 219°
2026-04-20 18:57 47.29267 8.70938 31581 ft 460 kts 219°
2026-04-20 18:57 47.26575 8.68378 32340 ft 461 kts 219°
2026-04-20 18:58 47.23882 8.65826 33115 ft 460 kts 219°
2026-04-20 18:58 47.21185 8.63280 33871 ft 461 kts 219°
2026-04-20 18:58 47.18483 8.60737 34517 ft 461 kts 218°
2026-04-20 18:58 47.15780 8.58200 35107 ft 462 kts 218°
2026-04-20 18:59 47.13070 8.55662 35700 ft 462 kts 218°
2026-04-20 18:59 47.10359 8.53127 36296 ft 462 kts 218°
2026-04-20 18:59 47.07646 8.50593 36874 ft 462 kts 218°
2026-04-20 18:59 47.04934 8.48065 37437 ft 461 kts 218°
2026-04-20 19:00 47.02325 8.45635 37973 ft 461 kts 217°
2026-04-20 19:00 46.99616 8.43113 38474 ft 461 kts 218°
2026-04-20 19:00 46.96906 8.40594 38923 ft 462 kts 217°
2026-04-20 19:00 46.94194 8.38074 39333 ft 462 kts 217°
2026-04-20 19:01 46.91480 8.35558 39670 ft 462 kts 217°
2026-04-20 19:01 46.88766 8.33044 40017 ft 462 kts 217°
2026-04-20 19:01 46.86047 8.30533 40345 ft 461 kts 217°
2026-04-20 19:01 46.83330 8.28042 40712 ft 460 kts 217°
2026-04-20 19:02 46.80655 8.25594 40951 ft 462 kts 217°
2026-04-20 19:02 46.77937 8.23103 41007 ft 462 kts 217°
2026-04-20 19:02 46.72502 8.18115 41022 ft 461 kts 217°
2026-04-20 19:03 46.67068 8.13128 41005 ft 461 kts 217°
2026-04-20 19:03 46.61633 8.08151 41018 ft 461 kts 217°
2026-04-20 19:04 46.56198 8.03187 41025 ft 461 kts 217°
2026-04-20 19:04 46.50757 7.98229 41026 ft 461 kts 217°
2026-04-20 19:05 46.45313 7.93280 41019 ft 462 kts 217°
2026-04-20 19:05 46.39819 7.88573 41004 ft 465 kts 211°
2026-04-20 19:06 46.33839 7.84892 41014 ft 469 kts 206°
2026-04-20 19:06 46.27746 7.81517 40992 ft 468 kts 206°
2026-04-20 19:07 46.21691 7.78107 40988 ft 467 kts 206°
2026-04-20 19:07 46.15652 7.74647 40990 ft 466 kts 207°
2026-04-20 19:08 46.06616 7.69460 40969 ft 464 kts 207°
2026-04-20 19:09 46.00617 7.66025 40965 ft 464 kts 207°
2026-04-20 19:09 45.94615 7.62599 40963 ft 463 kts 207°
2026-04-20 19:10 45.88613 7.59181 40971 ft 464 kts 206°
2026-04-20 19:10 45.82605 7.55770 40955 ft 463 kts 206°
2026-04-20 19:11 45.76608 7.52371 40957 ft 463 kts 206°
2026-04-20 19:11 45.70623 7.48988 40879 ft 461 kts 206°
2026-04-20 19:12 45.64697 7.45650 40941 ft 460 kts 206°
2026-04-20 19:12 45.58728 7.42308 40932 ft 461 kts 206°
2026-04-20 19:13 45.53775 7.39539 40928 ft 460 kts 206°
2026-04-20 19:13 45.47811 7.36202 40928 ft 460 kts 206°
2026-04-20 19:14 45.41852 7.32870 40934 ft 460 kts 207°
2026-04-20 19:14 45.35884 7.29540 40954 ft 460 kts 207°
2026-04-20 19:15 45.29923 7.26222 40990 ft 460 kts 207°
2026-04-20 19:15 45.23959 7.22909 40996 ft 460 kts 206°
2026-04-20 19:16 45.17993 7.19603 41015 ft 461 kts 207°
2026-04-20 19:16 45.12018 7.16300 41003 ft 459 kts 207°
2026-04-20 19:16 45.09151 7.14396 40827 ft 452 kts 216°
2026-04-20 19:17 45.06556 7.11946 40555 ft 445 kts 222°
2026-04-20 19:17 45.04126 7.09226 40165 ft 444 kts 225°
2026-04-20 19:17 45.01763 7.06426 39620 ft 442 kts 225°
2026-04-20 19:17 44.99417 7.03628 39073 ft 441 kts 225°
2026-04-20 19:18 44.97065 7.00862 38534 ft 440 kts 224°
2026-04-20 19:18 44.94702 6.98127 37966 ft 439 kts 224°
2026-04-20 19:18 44.92363 6.95453 37446 ft 439 kts 224°
2026-04-20 19:18 44.89978 6.92747 36934 ft 440 kts 224°
2026-04-20 19:19 44.87591 6.90051 36437 ft 439 kts 224°
2026-04-20 19:19 44.85200 6.87358 35929 ft 440 kts 224°
2026-04-20 19:19 44.82811 6.84671 35387 ft 440 kts 224°
2026-04-20 19:19 44.80412 6.81974 34833 ft 442 kts 224°
2026-04-20 19:20 44.78008 6.79273 34269 ft 442 kts 224°
2026-04-20 19:20 44.75605 6.76575 33689 ft 442 kts 224°
2026-04-20 19:20 44.73197 6.73874 33065 ft 443 kts 224°
2026-04-20 19:20 44.70777 6.71164 32513 ft 446 kts 224°
2026-04-20 19:21 44.68347 6.68445 31943 ft 446 kts 224°
2026-04-20 19:21 44.65911 6.65722 31378 ft 449 kts 224°
2026-04-20 19:21 44.63461 6.62987 30764 ft 451 kts 224°
2026-04-20 19:21 44.61003 6.60246 30161 ft 452 kts 224°
2026-04-20 19:22 44.58529 6.57491 29466 ft 455 kts 223°
2026-04-20 19:22 44.56052 6.54737 28740 ft 453 kts 223°
2026-04-20 19:22 44.53592 6.52009 28051 ft 449 kts 223°
2026-04-20 19:22 44.51149 6.49301 27381 ft 445 kts 223°
2026-04-20 19:23 44.48729 6.46621 26712 ft 442 kts 223°
2026-04-20 19:23 44.46335 6.43972 26067 ft 438 kts 224°
2026-04-20 19:23 44.43950 6.41340 25413 ft 435 kts 224°
2026-04-20 19:23 44.41581 6.38743 24768 ft 432 kts 223°
2026-04-20 19:24 44.39218 6.36155 24136 ft 429 kts 223°
2026-04-20 19:24 44.36872 6.33583 23507 ft 426 kts 223°
2026-04-20 19:24 44.34551 6.31033 22778 ft 423 kts 223°
2026-04-20 19:24 44.32276 6.28534 22134 ft 420 kts 223°
2026-04-20 19:25 44.29990 6.26024 21499 ft 416 kts 223°
2026-04-20 19:25 44.27734 6.23546 20868 ft 411 kts 223°
2026-04-20 19:25 44.25490 6.21085 20276 ft 408 kts 223°
2026-04-20 19:25 44.23267 6.18647 19659 ft 405 kts 223°
2026-04-20 19:26 44.21055 6.16223 19202 ft 403 kts 223°
2026-04-20 19:26 44.18855 6.13820 18939 ft 400 kts 223°
2026-04-20 19:26 44.16537 6.11643 18878 ft 406 kts 213°
2026-04-20 19:26 44.13871 6.10251 18787 ft 416 kts 197°
2026-04-20 19:27 44.10974 6.09803 18680 ft 422 kts 187°
2026-04-20 19:27 44.08033 6.09794 18078 ft 422 kts 183°
2026-04-20 19:27 44.05113 6.09937 17374 ft 418 kts 181°
2026-04-20 19:27 44.02229 6.10083 16747 ft 412 kts 182°
2026-04-20 19:28 43.99380 6.10183 16140 ft 407 kts 183°
2026-04-20 19:28 43.96561 6.10235 15547 ft 403 kts 184°
2026-04-20 19:28 43.93771 6.10256 14960 ft 398 kts 184°
2026-04-20 19:28 43.91047 6.10258 14390 ft 394 kts 184°
2026-04-20 19:29 43.88314 6.10250 13813 ft 391 kts 184°
2026-04-20 19:29 43.85608 6.10238 13214 ft 387 kts 184°
2026-04-20 19:29 43.82925 6.10225 12646 ft 384 kts 184°
2026-04-20 19:29 43.80264 6.10213 12098 ft 381 kts 184°
2026-04-20 19:30 43.77626 6.10202 11574 ft 377 kts 184°
2026-04-20 19:30 43.75008 6.10191 11212 ft 375 kts 184°
2026-04-20 19:30 43.72430 6.10181 11045 ft 360 kts 183°
2026-04-20 19:30 43.70013 6.10179 10929 ft 335 kts 184°
2026-04-20 19:31 43.67754 6.10177 10817 ft 313 kts 184°
2026-04-20 19:31 43.65631 6.10172 10696 ft 300 kts 184°
2026-04-20 19:31 43.63568 6.10162 10579 ft 294 kts 184°
2026-04-20 19:31 43.61516 6.10148 10339 ft 294 kts 184°
2026-04-20 19:32 43.59471 6.10178 9854 ft 293 kts 181°
2026-04-20 19:32 43.57444 6.10319 9311 ft 291 kts 180°
2026-04-20 19:32 43.55426 6.10498 8803 ft 289 kts 179°
2026-04-20 19:32 43.53447 6.10682 8331 ft 288 kts 179°
2026-04-20 19:33 43.51431 6.10870 7948 ft 287 kts 179°
2026-04-20 19:33 43.49467 6.11053 7575 ft 285 kts 179°
2026-04-20 19:33 43.47490 6.11238 7200 ft 284 kts 179°
2026-04-20 19:33 43.45549 6.11693 6953 ft 284 kts 163°
2026-04-20 19:34 43.43863 6.13108 6910 ft 288 kts 136°
2026-04-20 19:34 43.42634 6.15291 6910 ft 290 kts 123°
2026-04-20 19:34 43.41588 6.17675 6904 ft 291 kts 120°
2026-04-20 19:34 43.40579 6.20088 6902 ft 291 kts 120°
2026-04-20 19:35 43.39569 6.22500 6904 ft 291 kts 120°
2026-04-20 19:35 43.38545 6.24903 6902 ft 291 kts 121°
2026-04-20 19:35 43.37482 6.27267 6904 ft 291 kts 123°
2026-04-20 19:35 43.36401 6.29606 6656 ft 289 kts 123°
2026-04-20 19:36 43.35317 6.31927 6214 ft 287 kts 123°
2026-04-20 19:36 43.34251 6.34200 5845 ft 287 kts 123°
2026-04-20 19:36 43.33174 6.36497 5413 ft 285 kts 123°
2026-04-20 19:36 43.32108 6.38783 5001 ft 284 kts 122°
2026-04-20 19:37 43.31045 6.41054 4558 ft 283 kts 123°
2026-04-20 19:37 43.29984 6.43311 4145 ft 280 kts 123°
2026-04-20 19:37 43.28934 6.45562 3761 ft 279 kts 122°
2026-04-20 19:37 43.28116 6.47950 3205 ft 278 kts 102°
2026-04-20 19:38 43.28110 6.50544 2761 ft 264 kts 73°
2026-04-20 19:38 43.28716 6.52727 2626 ft 228 kts 63°
2026-04-20 19:38 43.29328 6.54573 2514 ft 198 kts 63°
2026-04-20 19:38 43.29851 6.56193 2421 ft 176 kts 63°
2026-04-20 19:39 43.30278 6.57658 2206 ft 157 kts 76°
2026-04-20 19:39 43.30126 6.59027 1778 ft 144 kts 126°
2026-04-20 19:39 43.29381 6.59892 1443 ft 142 kts 148°
2026-04-20 19:39 43.28556 6.60628 994 ft 140 kts 156°
2026-04-20 19:40 43.27655 6.60805 913 ft 131 kts 197°
2026-04-20 19:40 43.26922 6.60115 992 ft 124 kts 231°
2026-04-20 19:40 43.26374 6.59123 963 ft 124 kts 231°
2026-04-20 19:40 43.25764 6.58178 870 ft 127 kts 229°
2026-04-20 19:41 43.25135 6.57251 761 ft 128 kts 229°
2026-04-20 19:41 43.24520 6.56300 712 ft 130 kts 231°
2026-04-20 19:41 43.23953 6.55307 674 ft 134 kts 233°
2026-04-20 19:41 43.23417 6.54273 632 ft 133 kts 238°
2026-04-20 19:42 43.22897 6.53230 548 ft 132 kts 236°
2026-04-20 19:42 43.22368 6.52199 490 ft 132 kts 236°
2026-04-20 19:42 43.21839 6.51165 426 ft 133 kts 236°
2026-04-20 19:42 43.21314 6.50120 272 ft 133 kts 238°
2026-04-20 19:43 43.20863 6.49016 104 ft 132 kts 242°
2026-04-20 19:43 43.20774 6.48661 77 ft 1 kts 269°
2026-04-20 19:43 43.20747 6.48620 82 ft 15 kts 225°
2026-04-20 19:43 43.20654 6.48463 73 ft 30 kts 235°
2026-04-20 19:44 43.20525 6.48146 77 ft 41 kts 241°
2026-04-20 19:44 43.20402 6.47829 89 ft 35 kts 242°
2026-04-20 19:44 43.20366 6.47583 77 ft 11 kts 257°
2026-04-20 19:44 43.20355 6.47547 73 ft 0 kts 242°
2026-04-20 19:46 43.20328 6.47433 95 ft 2 kts 94°
2026-04-20 19:46 43.20327 6.47432 90 ft 0 kts 92°